• In Hungary
  • List of Countries
  • For 7 days
  • Water Temperature
  • Satellite Maps
  • Weather Map
  • News
  • Weather Widgets
  • user-avatar
    Login

    Hourly Weather Ropotamo

    Today, 18 October, Wednesday

    Time Temperature Precipitation Wind Pressure Humidity
    00:00 +18°C° 0 mm 1 mps 764 mmHg 54%
    01:00 +18°C° 0 mm 1 mps 764 mmHg 53%
    02:00 +18°C° 0 mm 1 mps 764 mmHg 55%
    03:00 +15°C° 0 mm 0 mps 764 mmHg 56%
    04:00 +15°C° 0 mm 0 mps 764 mmHg 56%
    05:00 +15°C° 0 mm 0 mps 764 mmHg 56%
    06:00 +16°C° 0 mm 0 mps 764 mmHg 54%
    07:00 +17°C° 0 mm 0 mps 764 mmHg 53%
    08:00 +20°C° 0 mm 1 mps 764 mmHg 47%
    09:00 +22°C° 0 mm 1 mps 764 mmHg 42%
    10:00 +24°C° 0 mm 1 mps 763 mmHg 36%
    11:00 +26°C° 0 mm 1 mps 763 mmHg 31%
    12:00 +26°C° 0 mm 1 mps 763 mmHg 31%
    13:00 +27°C° 0 mm 2 mps 762 mmHg 30%
    14:00 +27°C° 0 mm 2 mps 762 mmHg 29%
    15:00 +26°C° 0 mm 2 mps 762 mmHg 36%
    16:00 +24°C° 0 mm 2 mps 762 mmHg 42%
    17:00 +23°C° 0 mm 2 mps 761 mmHg 48%
    18:00 +20°C° 0 mm 2 mps 761 mmHg 51%
    19:00 +19°C° 0 mm 2 mps 761 mmHg 54%
    20:00 +19°C° 0 mm 1 mps 761 mmHg 57%
    21:00 +18°C° 0 mm 1 mps 761 mmHg 57%
    22:00 +18°C° 0 mm 1 mps 761 mmHg 57%
    23:00 +18°C° 0 mm 1 mps 761 mmHg 56%

    Tomorrow, 19 October, Thursday

    Time Temperature Precipitation Wind Pressure Humidity
    00:00 +16°C° 0 mm 1 mps 761 mmHg 56%
    01:00 +16°C° 0 mm 1 mps 761 mmHg 57%
    02:00 +15°C° 0 mm 0 mps 761 mmHg 57%
    03:00 +15°C° 0 mm 0 mps 760 mmHg 57%
    04:00 +14°C° 0 mm 0 mps 760 mmHg 57%
    05:00 +14°C° 0 mm 0 mps 760 mmHg 56%
    06:00 +15°C° 0 mm 0 mps 760 mmHg 55%
    07:00 +16°C° 0 mm 0 mps 760 mmHg 53%
    08:00 +17°C° 0 mm 0 mps 760 mmHg 51%
    09:00 +21°C° 0 mm 1 mps 760 mmHg 45%
    10:00 +24°C° 0 mm 1 mps 760 mmHg 40%
    11:00 +26°C° 0 mm 1 mps 760 mmHg 34%
    12:00 +26°C° 0 mm 1 mps 760 mmHg 33%
    13:00 +27°C° 0 mm 2 mps 760 mmHg 32%
    14:00 +28°C° 0 mm 2 mps 760 mmHg 31%
    15:00 +26°C° 0 mm 2 mps 759 mmHg 37%
    16:00 +24°C° 0 mm 2 mps 759 mmHg 43%
    17:00 +23°C° 0 mm 2 mps 759 mmHg 50%
    18:00 +21°C° 0 mm 2 mps 759 mmHg 54%
    19:00 +20°C° 0 mm 2 mps 759 mmHg 58%
    20:00 +18°C° 0 mm 2 mps 760 mmHg 62%
    21:00 +18°C° 0 mm 2 mps 760 mmHg 63%
    22:00 +18°C° 0 mm 2 mps 760 mmHg 64%
    23:00 +17°C° 0 mm 2 mps 760 mmHg 65%

    Day after tomorrow, 20 October, Friday

    Time Temperature Precipitation Wind Pressure Humidity
    00:00 +18°C° 0 mm 1 mps 759 mmHg 65%
    01:00 +18°C° 0 mm 1 mps 759 mmHg 66%
    02:00 +18°C° 0 mm 1 mps 759 mmHg 66%
    03:00 +16°C° 0 mm 1 mps 759 mmHg 67%
    04:00 +16°C° 0 mm 1 mps 759 mmHg 67%
    05:00 +16°C° 0 mm 1 mps 759 mmHg 67%
    06:00 +18°C° 0 mm 1 mps 759 mmHg 64%
    07:00 +19°C° 0 mm 1 mps 759 mmHg 61%
    08:00 +19°C° 0 mm 1 mps 760 mmHg 59%
    09:00 +22°C° 0 mm 1 mps 760 mmHg 51%
    10:00 +24°C° 0 mm 1 mps 760 mmHg 44%
    11:00 +26°C° 0 mm 1 mps 760 mmHg 37%
    12:00 +27°C° 0 mm 1 mps 759 mmHg 35%
    13:00 +27°C° 0 mm 1 mps 759 mmHg 33%
    14:00 +28°C° 0 mm 1 mps 759 mmHg 31%
    15:00 +26°C° 0 mm 2 mps 759 mmHg 35%
    16:00 +25°C° 0 mm 2 mps 759 mmHg 40%
    17:00 +23°C° 0 mm 2 mps 759 mmHg 44%
    18:00 +21°C° 0 mm 2 mps 759 mmHg 47%
    19:00 +20°C° 0 mm 2 mps 759 mmHg 50%
    20:00 +19°C° 0 mm 2 mps 759 mmHg 52%
    21:00 +20°C° 0 mm 1 mps 759 mmHg 52%
    22:00 +19°C° 0 mm 1 mps 760 mmHg 52%
    23:00 +19°C° 0 mm 1 mps 760 mmHg 53%

    21 October, Saturday

    Time Temperature Precipitation Wind Pressure Humidity
    00:00 +19°C° 0 mm 1 mps 760 mmHg 53%
    01:00 +18°C° 0 mm 1 mps 760 mmHg 53%
    02:00 +18°C° 0 mm 1 mps 760 mmHg 54%
    03:00 +18°C° 0 mm 1 mps 760 mmHg 55%
    04:00 +16°C° 0 mm 1 mps 759 mmHg 55%
    05:00 +16°C° 0 mm 2 mps 759 mmHg 56%
    06:00 +17°C° 0 mm 2 mps 760 mmHg 55%
    07:00 +18°C° 0 mm 2 mps 760 mmHg 54%
    08:00 +18°C° 0 mm 2 mps 760 mmHg 53%
    09:00 +20°C° 0 mm 2 mps 760 mmHg 48%
    10:00 +23°C° 0 mm 2 mps 760 mmHg 44%
    11:00 +25°C° 0 mm 2 mps 760 mmHg 39%
    12:00 +25°C° 0 mm 2 mps 760 mmHg 38%
    13:00 +26°C° 0 mm 3 mps 760 mmHg 37%
    14:00 +26°C° 0 mm 3 mps 760 mmHg 36%
    15:00 +25°C° 0 mm 3 mps 760 mmHg 42%
    16:00 +22°C° 0 mm 3 mps 760 mmHg 48%
    17:00 +21°C° 0 mm 3 mps 760 mmHg 53%
    18:00 +20°C° 0 mm 3 mps 760 mmHg 59%
    19:00 +19°C° 0 mm 3 mps 760 mmHg 64%
    20:00 +17°C° 0 mm 3 mps 761 mmHg 69%
    21:00 +17°C° 0 mm 3 mps 761 mmHg 75%
    22:00 +16°C° 0 mm 3 mps 761 mmHg 81%
    23:00 +16°C° 0 mm 3 mps 761 mmHg 87%

    22 October, Sunday

    Time Temperature Precipitation Wind Pressure Humidity
    00:00 +14°C° 0 mm 3 mps 761 mmHg 90%
    01:00 +14°C° 0 mm 3 mps 761 mmHg 92%
    02:00 +14°C° 0 mm 3 mps 761 mmHg 95%
    03:00 +14°C° 0 mm 3 mps 761 mmHg 96%
    04:00 +14°C° 0 mm 3 mps 761 mmHg 96%
    05:00 +14°C° 0 mm 3 mps 761 mmHg 96%
    06:00 +16°C° 0 mm 3 mps 761 mmHg 94%
    07:00 +16°C° 0 mm 3 mps 761 mmHg 91%
    08:00 +17°C° 0 mm 3 mps 761 mmHg 89%
    09:00 +18°C° 0 mm 3 mps 761 mmHg 81%
    10:00 +19°C° 0 mm 3 mps 761 mmHg 74%
    11:00 +20°C° 0 mm 3 mps 761 mmHg 67%
    12:00 +21°C° 0 mm 3 mps 760 mmHg 64%
    13:00 +21°C° 0 mm 3 mps 760 mmHg 62%
    14:00 +22°C° 0 mm 3 mps 760 mmHg 59%
    15:00 +21°C° 0 mm 3 mps 759 mmHg 64%
    16:00 +20°C° 0 mm 3 mps 759 mmHg 70%
    17:00 +19°C° 0 mm 3 mps 759 mmHg 75%
    18:00 +18°C° 0 mm 3 mps 759 mmHg 82%
    19:00 +16°C° 0 mm 3 mps 759 mmHg 88%
    20:00 +14°C° 0 mm 3 mps 759 mmHg 95%
    21:00 +14°C° 0 mm 3 mps 759 mmHg 95%
    22:00 +14°C° 0 mm 3 mps 759 mmHg 95%
    23:00 +14°C° 0 mm 3 mps 759 mmHg 95%

    23 October, Monday

    Time Temperature Precipitation Wind Pressure Humidity
    00:00 +14°C° 0 mm 3 mps 758 mmHg 95%
    01:00 +13°C° 0 mm 3 mps 758 mmHg 94%
    02:00 +13°C° 0 mm 3 mps 757 mmHg 94%
    03:00 +13°C° 0 mm 3 mps 757 mmHg 94%
    04:00 +13°C° 0 mm 3 mps 757 mmHg 95%
    05:00 +13°C° 0 mm 3 mps 756 mmHg 95%
    06:00 +14°C° 0 mm 3 mps 756 mmHg 93%
    07:00 +14°C° 0 mm 3 mps 756 mmHg 91%
    08:00 +16°C° 0 mm 3 mps 756 mmHg 89%
    09:00 +17°C° 0 mm 4 mps 756 mmHg 81%
    10:00 +18°C° 0 mm 4 mps 755 mmHg 73%
    11:00 +20°C° 0 mm 4 mps 755 mmHg 64%
    12:00 +20°C° 0 mm 4 mps 755 mmHg 63%
    13:00 +20°C° 0 mm 4 mps 754 mmHg 62%
    14:00 +20°C° 0 mm 4 mps 754 mmHg 61%
    15:00 +19°C° 0 mm 4 mps 754 mmHg 67%
    16:00 +18°C° 0 mm 4 mps 754 mmHg 73%
    17:00 +17°C° 0 mm 4 mps 753 mmHg 79%
    18:00 +15°C° 0 mm 4 mps 754 mmHg 83%
    19:00 +14°C° 0 mm 4 mps 754 mmHg 88%
    20:00 +14°C° 0 mm 3 mps 754 mmHg 92%
    21:00 +14°C° 0 mm 3 mps 754 mmHg 93%
    22:00 +14°C° 0 mm 3 mps 754 mmHg 93%
    23:00 +14°C° 0 mm 3 mps 754 mmHg 94%
    Show more